Regional Weather Roundup
Issued by NWS

Home | Current Version | Previous Version | Graphics & Text | Print | Product List | Glossary Off
Versions: 1 2 3 4 5 6 7 8 9 10 11 12 13 14 15 16 17 18 19 20 21 22 23 24 25 26 27 28 29 30 31 32 33 34 35 36 37 38 39 40 41 42 43 44 45 46 47 48 49 50

000
ASUS43 KTOP 042159
RWRKS

WEATHER ROUNDUP FOR KANSAS
NATIONAL WEATHER SERVICE GOODLAND KS
400 PM CST SUN DEC 04 2016

NOTE:  "FAIR" INDICATES FEW OR NO CLOUDS BELOW 12,000 FEET WITH NO
SIGNIFICANT WEATHER AND/OR OBSTRUCTIONS TO VISIBILITY.

KSZ001>006-013>018-027>032-041>047-042300-
NORTHWEST KANSAS

CITY           SKY/WX    TMP DP  RH WIND       PRES   REMARKS
GOODLAND       SUNNY     49   8  19 SW16      29.89F
HAYS           SUNNY     52  25  35 W8        29.95F
HILL CITY      SUNNY     52  18  26 W6        29.93S
RUSSELL        SUNNY     50  28  42 SW7       29.94F
$$

KSZ061>065-074>080-084>089-042300-
SOUTHWEST KANSAS

CITY           SKY/WX    TMP DP  RH WIND       PRES   REMARKS
DODGE CITY     SUNNY     50  23  34 SW9       30.00S
ELKHART          N/A     49  18  29 S15         N/A
GARDEN CITY    SUNNY     50  16  25 SW5       29.97S
GREAT BEND     SUNNY     52  27  38 W8        29.98S
LIBERAL        SUNNY     48  25  40 S9        30.02F
$$

KSZ066>073-081>083-090>101-042300-
SOUTHEAST KANSAS

CITY           SKY/WX    TMP DP  RH WIND       PRES   REMARKS
CHANUTE        PTCLDY    48  38  68 SW7       30.02F
COFFEYVILLE    SUNNY     51  39  63 CALM      30.04S
HUTCHINSON     SUNNY     51  32  48 W6        29.99S
MEDICINE LODGE   N/A     54  24  31 W7        30.01R
NEWTON         SUNNY     50  34  54 W6        30.01R
PARSONS        CLEAR     50  39  66 SW6       30.04S
WICHITA INTL   SUNNY     51  34  52 SW6       30.00F
WICHITA JABRA  SUNNY     50  35  56 SW6       30.01R
WINFIELD       SUNNY     48  39  71 SW8       30.04S
$$

KSZ007>012-019>026-033>040-048>060-102>105-042300-
NORTHEAST KANSAS

CITY           SKY/WX    TMP DP  RH WIND       PRES   REMARKS
CONCORDIA      CLEAR     46  34  62 SW9       29.95S
EMPORIA        CLEAR     45  35  68 W6        30.00S
LAWRENCE       CLOUDY    40  36  86 SW8       30.00S
MANHATTAN      CLEAR     46  38  73 SW8       29.98S
OLATHE IND     MOCLDY    43  36  76 W7        29.99S
OLATHE EXE     PTCLDY    42  36  79 W8        29.98S
SALINA         SUNNY     52  33  48 SW7       29.98S
TOPEKA BILLARD MOCLDY    39  34  82 SW6       30.00R
TOPEKA FORBES  MOCLDY    40  35  83 SW6       30.00R
$$




USA.gov is the U.S. government's official web portal to all federal, state and local government web resources and services.